| time (UTC) | temp C | wind direction | speed KPH | gust KPH | rain 1hr cm | rain 24hr cm | rain mn cm | humidity % | barometer mb |
| 20260507160537 | 16 | 203 | 4.8 | 14.5 | 0.00 | 0.28 | 0.08 | 45 | 1006.8 |
| 20260507155537 | 16 | 135 | 1.6 | 9.7 | 0.03 | 0.28 | 0.08 | 51 | 1006.9 |
| 20260507154537 | 15 | 270 | 1.6 | 11.3 | 0.03 | 0.28 | 0.08 | 52 | 1006.8 |
| 20260507153557 | 15 | 203 | 4.8 | 11.3 | 0.03 | 0.28 | 0.08 | 52 | 1006.9 |
| 20260507152537 | 15 | 248 | 4.8 | 11.3 | 0.03 | 0.28 | 0.08 | 53 | 1006.9 |
| 20260507151537 | 15 | 248 | 4.8 | 14.5 | 0.03 | 0.28 | 0.08 | 55 | 1007.2 |
| 20260507150537 | 14 | 225 | 6.4 | 20.9 | 0.03 | 0.28 | 0.08 | 58 | 1007.3 |
| 20260507145537 | 14 | 180 | 4.8 | 16.1 | 0.00 | 0.25 | 0.05 | 61 | 1007.3 |
| 20260507144537 | 14 | 180 | 6.4 | 17.7 | 0.00 | 0.25 | 0.05 | 59 | 1007.5 |
| 20260507143537 | 14 | 180 | 1.6 | 6.4 | 0.00 | 0.25 | 0.05 | 67 | 1007.4 |
| 20260507142537 | 13 | 0.0 | 4.8 | 0.00 | 0.25 | 0.05 | 67 | 1007.5 | |
| 20260507141537 | 13 | 0.0 | 4.8 | 0.00 | 0.25 | 0.05 | 67 | 1007.5 | |
| 20260507140537 | 13 | 158 | 3.2 | 16.1 | 0.00 | 0.25 | 0.05 | 67 | 1007.5 |
| 20260507135537 | 13 | 180 | 3.2 | 11.3 | 0.00 | 0.25 | 0.05 | 68 | 1007.5 |
| 20260507134537 | 13 | 0.0 | 4.8 | 0.00 | 0.25 | 0.05 | 70 | 1007.3 | |
| 20260507133537 | 13 | 203 | 1.6 | 8.0 | 0.00 | 0.25 | 0.05 | 73 | 1007.3 |
| 20260507132537 | 12 | 203 | 1.6 | 6.4 | 0.00 | 0.25 | 0.05 | 73 | 1007.4 |
| 20260507131557 | 12 | 225 | 3.2 | 9.7 | 0.00 | 0.25 | 0.05 | 74 | 1007.6 |
| 20260507130537 | 12 | 203 | 3.2 | 8.0 | 0.00 | 0.25 | 0.05 | 75 | 1007.6 |
| 20260507125537 | 11 | 248 | 3.2 | 9.7 | 0.00 | 0.25 | 0.05 | 78 | 1007.6 |
| 20260507124537 | 11 | 0.0 | 3.2 | 0.00 | 0.25 | 0.05 | 82 | 1007.8 | |
| 20260507123537 | 10 | 270 | 1.6 | 14.5 | 0.00 | 0.25 | 0.05 | 85 | 1007.8 |
| 20260507122537 | 10 | 158 | 3.2 | 11.3 | 0.00 | 0.25 | 0.05 | 89 | 1007.7 |
| 20260507121537 | 10 | 180 | 3.2 | 11.3 | 0.00 | 0.25 | 0.05 | 92 | 1007.8 |
| 20260507120537 | 10 | 180 | 1.6 | 6.4 | 0.00 | 0.25 | 0.05 | 95 | 1007.8 |
| 20260507115537 | 10 | 0.0 | 0.0 | 0.00 | 0.25 | 0.05 | 95 | 1007.7 | |
| 20260507114537 | 10 | 0.0 | 0.0 | 0.00 | 0.25 | 0.05 | 96 | 1007.8 | |
| 20260507113537 | 9 | 0.0 | 0.0 | 0.00 | 0.25 | 0.05 | 95 | 1007.7 | |
| 20260507112537 | 9 | 0.0 | 0.0 | 0.00 | 0.25 | 0.05 | 95 | 1007.6 | |
| 20260507111537 | 9 | 0.0 | 0.0 | 0.00 | 0.25 | 0.05 | 95 | 1007.6 | |
| 20260507110537 | 9 | 0.0 | 0.0 | 0.00 | 0.25 | 0.05 | 95 | 1007.4 | |
| 20260507105537 | 9 | 0.0 | 0.0 | 0.00 | 0.25 | 0.05 | 95 | 1007.2 | |
| 20260507104537 | 9 | 0.0 | 0.0 | 0.00 | 0.25 | 0.05 | 94 | 1007.4 | |
| 20260507103558 | 9 | 0.0 | 0.0 | 0.00 | 0.25 | 0.05 | 94 | 1007.4 | |
| 20260507102537 | 9 | 0.0 | 0.0 | 0.03 | 0.25 | 0.05 | 94 | 1007.0 | |
| 20260507101537 | 9 | 0.0 | 0.0 | 0.03 | 0.25 | 0.05 | 94 | 1006.8 | |
| 20260507100538 | 9 | 0.0 | 0.0 | 0.03 | 0.25 | 0.05 | 94 | 1006.7 | |
| 20260507095537 | 9 | 0.0 | 0.0 | 0.03 | 0.25 | 0.05 | 94 | 1006.9 | |
| 20260507094537 | 9 | 0.0 | 0.0 | 0.03 | 0.25 | 0.05 | 93 | 1006.5 | |
| 20260507093537 | 9 | 0.0 | 0.0 | 0.03 | 0.25 | 0.05 | 93 | 1006.7 | |
| 20260507092539 | 9 | 0.0 | 0.0 | 0.00 | 0.23 | 0.03 | 92 | 1007.0 | |
| 20260507091539 | 10 | 0.0 | 0.0 | 0.00 | 0.23 | 0.03 | 92 | 1007.0 | |
| 20260507090539 | 10 | 0.0 | 0.0 | 0.00 | 0.23 | 0.03 | 92 | 1006.9 | |
| 20260507085539 | 10 | 0.0 | 0.0 | 0.00 | 0.23 | 0.03 | 91 | 1007.3 | |
| 20260507084539 | 10 | 0.0 | 3.2 | 0.00 | 0.23 | 0.03 | 91 | 1007.3 | |
| 20260507083539 | 10 | 0.0 | 3.2 | 0.03 | 0.23 | 0.03 | 91 | 1007.0 | |
| 20260507082537 | 10 | 0.0 | 0.0 | 0.03 | 0.23 | 0.03 | 90 | 1007.2 | |
| 20260507081539 | 10 | 0.0 | 3.2 | 0.03 | 0.23 | 0.03 | 90 | 1006.7 | |
| 20260507080539 | 10 | 0.0 | 0.0 | 0.03 | 0.23 | 0.03 | 89 | 1006.5 | |
| 20260507075539 | 10 | 0.0 | 0.0 | 0.03 | 0.23 | 0.03 | 89 | 1006.7 | |
| 20260507074539 | 11 | 0.0 | 0.0 | 0.03 | 0.23 | 0.03 | 89 | 1007.1 | |
| 20260507073539 | 11 | 0.0 | 0.0 | 0.00 | 0.20 | 0.00 | 87 | 1006.7 | |
| 20260507072537 | 11 | 180 | 1.6 | 6.4 | 0.00 | 0.20 | 0.00 | 87 | 1006.9 |
| 20260507071539 | 11 | 0.0 | 6.4 | 0.00 | 0.20 | 0.00 | 88 | 1006.4 | |
| 20260507071039 | 11 | 0.0 | 3.2 | 0.00 | 0.20 | 0.00 | 88 | 1006.2 | |
| 20260507065539 | 11 | 0.0 | 9.7 | 0.00 | 0.20 | 0.00 | 88 | 1006.2 | |
| 20260507064539 | 11 | 0.0 | 6.4 | 0.00 | 0.20 | 0.00 | 89 | 1006.0 | |
| 20260507063539 | 11 | 0.0 | 0.0 | 0.00 | 0.20 | 0.00 | 89 | 1006.0 | |
| 20260507062539 | 11 | 0.0 | 4.8 | 0.00 | 0.20 | 0.00 | 90 | 1006.2 | |
| 20260507061539 | 12 | 180 | 1.6 | 6.4 | 0.00 | 0.20 | 0.00 | 90 | 1006.2 |
| 20260507060539 | 12 | 0.0 | 0.0 | 0.00 | 0.20 | 0.00 | 91 | 1006.2 | |
| 20260507055539 | 12 | 158 | 1.6 | 11.3 | 0.00 | 0.20 | 0.00 | 91 | 1006.0 |
| 20260507054539 | 12 | 0.0 | 0.0 | 0.00 | 0.20 | 0.00 | 92 | 1006.4 | |
| 20260507053539 | 12 | 0.0 | 8.0 | 0.00 | 0.20 | 0.00 | 93 | 1006.4 | |
| 20260507052539 | 13 | 180 | 1.6 | 4.8 | 0.00 | 0.20 | 0.00 | 94 | 1006.5 |
| 20260507051559 | 13 | 0.0 | 3.2 | 0.00 | 0.20 | 0.00 | 94 | 1006.5 | |
| 20260507050600 | 13 | 0.0 | 0.0 | 0.00 | 0.20 | 0.00 | 94 | 1006.4 | |
| 20260507045539 | 13 | 0.0 | 3.2 | 0.00 | 0.20 | 0.00 | 94 | 1006.3 | |
| 20260507044539 | 13 | 0.0 | 6.4 | 0.00 | 0.20 | 0.00 | 95 | 1006.4 | |
| 20260507043539 | 13 | 0.0 | 4.8 | 0.00 | 0.20 | 0.00 | 95 | 1006.4 | |
| 20260507042538 | 13 | 180 | 1.6 | 8.0 | 0.00 | 0.20 | 0.00 | 95 | 1006.2 |
| 20260507041539 | 14 | 0.0 | 0.0 | 0.00 | 0.20 | 0.00 | 96 | 1006.4 | |
| 20260507040538 | 14 | 0.0 | 4.8 | 0.03 | 0.20 | 0.00 | 96 | 1006.3 | |
| 20260507035537 | 14 | 0.0 | 6.4 | 0.03 | 0.20 | 0.20 | 96 | 1006.4 | |
| 20260507034537 | 15 | 135 | 1.6 | 9.7 | 0.03 | 0.20 | 0.20 | 96 | 1006.4 |
| 20260507033537 | 15 | 0.0 | 0.0 | 0.03 | 0.20 | 0.20 | 97 | 1006.1 | |
| 20260507032537 | 15 | 0.0 | 6.4 | 0.03 | 0.20 | 0.20 | 97 | 1005.9 | |
| 20260507031537 | 15 | 0.0 | 4.8 | 0.03 | 0.20 | 0.20 | 97 | 1005.8 | |
| 20260507030537 | 15 | 0.0 | 0.0 | 0.00 | 0.18 | 0.18 | 97 | 1005.7 | |
| 20260507025537 | 15 | 0.0 | 1.6 | 0.00 | 0.18 | 0.18 | 97 | 1005.5 | |
| 20260507024538 | 15 | 0.0 | 0.0 | 0.00 | 0.18 | 0.18 | 97 | 1005.1 | |
| 20260507023537 | 15 | 0.0 | 0.0 | 0.00 | 0.18 | 0.18 | 97 | 1005.2 | |
| 20260507022537 | 15 | 0.0 | 3.2 | 0.00 | 0.18 | 0.18 | 97 | 1005.3 | |
| 20260507021537 | 15 | 0.0 | 4.8 | 0.00 | 0.18 | 0.18 | 97 | 1005.3 | |
| 20260507020537 | 15 | 0.0 | 0.0 | 0.00 | 0.18 | 0.18 | 97 | 1005.2 | |
| 20260507015537 | 15 | 0.0 | 0.0 | 0.00 | 0.18 | 0.18 | 97 | 1005.2 | |
| 20260507014558 | 15 | 0.0 | 3.2 | 0.00 | 0.18 | 0.18 | 97 | 1005.2 | |
| 20260507013537 | 15 | 0.0 | 0.0 | 0.00 | 0.18 | 0.18 | 96 | 1005.1 | |
| 20260507012537 | 15 | 0.0 | 1.6 | 0.00 | 0.18 | 0.18 | 96 | 1005.2 | |
| 20260507011558 | 15 | 0.0 | 4.8 | 0.00 | 0.18 | 0.18 | 96 | 1005.2 | |
| 20260507010537 | 15 | 0.0 | 4.8 | 0.00 | 0.18 | 0.18 | 96 | 1005.3 | |
| 20260507005537 | 15 | 0.0 | 1.6 | 0.00 | 0.18 | 0.18 | 96 | 1005.3 | |
| 20260507004558 | 15 | 0.0 | 1.6 | 0.00 | 0.18 | 0.18 | 96 | 1005.4 | |
| 20260507003537 | 15 | 0.0 | 4.8 | 0.00 | 0.18 | 0.18 | 96 | 1005.3 | |
| 20260507002537 | 15 | 0.0 | 0.0 | 0.00 | 0.18 | 0.18 | 96 | 1005.2 | |
| 20260507001537 | 15 | 0.0 | 3.2 | 0.00 | 0.18 | 0.18 | 96 | 1005.2 | |
| 20260507000537 | 15 | 0.0 | 0.0 | 0.03 | 0.18 | 0.18 | 96 | 1005.1 | |
| 20260506235537 | 15 | 0.0 | 0.0 | 0.05 | 0.18 | 0.18 | 96 | 1004.9 | |
| 20260506234557 | 15 | 0.0 | 0.0 | 0.08 | 0.18 | 0.18 | 96 | 1004.9 | |
| 20260506233537 | 15 | 0.0 | 0.0 | 0.08 | 0.18 | 0.18 | 96 | 1004.9 | |
| 20260506232537 | 15 | 0.0 | 0.0 | 0.08 | 0.18 | 0.18 | 96 | 1004.9 | |
| 20260506231537 | 15 | 0.0 | 0.0 | 0.08 | 0.18 | 0.18 | 95 | 1004.8 | |
| 20260506230537 | 15 | 0.0 | 0.0 | 0.05 | 0.15 | 0.15 | 95 | 1004.9 | |
| 20260506225537 | 16 | 0.0 | 0.0 | 0.03 | 0.13 | 0.13 | 95 | 1004.9 | |
| 20260506224557 | 16 | 0.0 | 0.0 | 0.00 | 0.10 | 0.10 | 95 | 1005.1 | |
| 20260506223537 | 16 | 0.0 | 3.2 | 0.00 | 0.10 | 0.10 | 95 | 1005.1 | |
| 20260506222537 | 16 | 0.0 | 4.8 | 0.00 | 0.10 | 0.10 | 95 | 1005.1 | |
| 20260506221537 | 16 | 0.0 | 0.0 | 0.00 | 0.10 | 0.10 | 95 | 1005.2 | |
| 20260506220537 | 16 | 0.0 | 3.2 | 0.00 | 0.10 | 0.10 | 94 | 1005.4 | |
| 20260506215537 | 16 | 0.0 | 0.0 | 0.03 | 0.10 | 0.10 | 94 | 1005.3 | |
| 20260506214537 | 16 | 0.0 | 3.2 | 0.03 | 0.10 | 0.10 | 94 | 1005.3 | |
| 20260506213537 | 16 | 90 | 1.6 | 3.2 | 0.03 | 0.10 | 0.10 | 94 | 1005.6 |
| 20260506212537 | 16 | 0.0 | 0.0 | 0.03 | 0.10 | 0.10 | 94 | 1005.6 | |
| 20260506211537 | 16 | 0.0 | 0.0 | 0.03 | 0.10 | 0.10 | 94 | 1005.7 | |
| 20260506210537 | 16 | 90 | 1.6 | 4.8 | 0.03 | 0.10 | 0.10 | 93 | 1005.8 |
| 20260506205557 | 16 | 0.0 | 4.8 | 0.03 | 0.08 | 0.08 | 93 | 1005.9 | |
| 20260506204537 | 16 | 90 | 1.6 | 6.4 | 0.03 | 0.08 | 0.08 | 93 | 1005.9 |
| 20260506203537 | 16 | 0.0 | 3.2 | 0.03 | 0.08 | 0.08 | 93 | 1006.0 | |
| 20260506202537 | 16 | 0.0 | 3.2 | 0.05 | 0.08 | 0.08 | 92 | 1006.1 | |
| 20260506201617 | 16 | 90 | 1.6 | 6.4 | 0.08 | 0.08 | 0.08 | 91 | 1006.1 |
| 20260506200537 | 16 | 90 | 1.6 | 4.8 | 0.08 | 0.08 | 0.08 | 91 | 1006.1 |
| 20260506195537 | 17 | 90 | 1.6 | 6.4 | 0.05 | 0.05 | 0.05 | 90 | 1006.1 |
| 20260506194537 | 17 | 90 | 1.6 | 4.8 | 0.05 | 0.05 | 0.05 | 89 | 1005.9 |
| 20260506193634 | 17 | 0.0 | 0.0 | 0.05 | 0.05 | 0.05 | 88 | 1006.1 | |
| 20260506192557 | 18 | 0.0 | 3.2 | 0.03 | 0.03 | 0.03 | 86 | 1006.0 | |
| 20260506191557 | 18 | 0.0 | 0.0 | 0.00 | 0.00 | 0.00 | 85 | 1006.0 | |
| 20260506190537 | 18 | 0.0 | 3.2 | 0.00 | 0.00 | 0.00 | 83 | 1006.0 | |
| 20260506185537 | 19 | 113 | 1.6 | 4.8 | 0.00 | 0.00 | 0.00 | 79 | 1006.1 |
| 20260506184537 | 20 | 113 | 3.2 | 9.7 | 0.00 | 0.00 | 0.00 | 75 | 1006.2 |
| 20260506183557 | 20 | 90 | 3.2 | 16.1 | 0.00 | 0.00 | 0.00 | 72 | 1006.4 |
| 20260506182617 | 21 | 158 | 3.2 | 9.7 | 0.00 | 0.00 | 0.00 | 70 | 1006.4 |
| 20260506181537 | 21 | 158 | 1.6 | 6.4 | 0.00 | 0.00 | 0.00 | 68 | 1006.4 |
| 20260506180557 | 21 | 113 | 3.2 | 9.7 | 0.00 | 0.00 | 0.00 | 64 | 1006.4 |
| 20260506175537 | 22 | 113 | 6.4 | 16.1 | 0.00 | 0.00 | 0.00 | 62 | 1006.4 |
| 20260506174537 | 22 | 113 | 8.0 | 16.1 | 0.00 | 0.00 | 0.00 | 60 | 1006.3 |
| 20260506173537 | 22 | 113 | 6.4 | 19.3 | 0.00 | 0.00 | 0.00 | 59 | 1006.4 |
| 20260506172638 | 22 | 90 | 4.8 | 12.9 | 0.00 | 0.00 | 0.00 | 59 | 1006.3 |
| 20260506171537 | 22 | 90 | 4.8 | 12.9 | 0.00 | 0.00 | 0.00 | 59 | 1006.6 |
| 20260506170537 | 22 | 90 | 4.8 | 11.3 | 0.00 | 0.00 | 0.00 | 59 | 1006.4 |
| 20260506165537 | 22 | 90 | 3.2 | 11.3 | 0.00 | 0.00 | 0.00 | 60 | 1006.6 |
| 20260506164537 | 22 | 90 | 1.6 | 9.7 | 0.00 | 0.00 | 0.00 | 63 | 1006.7 |
| 20260506163537 | 21 | 90 | 1.6 | 6.4 | 0.00 | 0.00 | 0.00 | 63 | 1006.9 |
| 20260506162537 | 21 | 90 | 3.2 | 9.7 | 0.00 | 0.00 | 0.00 | 63 | 1007.1 |
| 20260506161537 | 21 | 90 | 1.6 | 6.4 | 0.00 | 0.00 | 0.00 | 64 | 1007.1 |